RH
58 57 56 54 54 54 56 60 59 63 75 85 88 93 95 92 98 100 100 99 94 89 77 70 69 75 84 89 93 90 87 89 86 74 63 70 79 80 80 79 81 86 90 79 55 60 81 75 59 42 27 22
47 46 44 41 42 45 50 57 60 60 65 74 81 90 92 85 94 101 99 100 98 91 79 72 67 68 80 89 89 88 91 90 89 85 78 75 75 75 77 78 77 80 81 74 66 72 82 80 73 57 39 29
35 34 33 32 32 34 40 49 56 60 61 62 61 72 88 88 92 100 100 99 100 94 83 77 70 66 74 84 85 86 94 98 94 92 92 86 79 72 68 71 77 75 67 74 81 78 79 81 80 70 53 37
33 33 32 33 33 33 35 39 46 54 63 64 56 68 91 95 93 97 100 99 100 99 91 87 82 72 71 77 82 85 91 99 100 97 96 94 87 80 69 59 66 72 66 79 91 82 80 80 80 79 66 47
36 36 36 37 38 39 38 38 41 46 66 80 75 84 100 99 97 98 99 100 100 100 99 97 92 83 73 73 80 85 91 96 98 99 99 99 97 94 85 63 60 77 73 75 90 88 81 80 80 79 76 63
38 38 37 39 40 43 43 44 48 47 63 86 89 93 100 100 100 99 99 100 100 100 100 100 97 92 80 72 75 82 90 94 96 99 99 99 100 99 97 77 62 76 77 66 77 91 85 79 80 77 80 77
41 41 40 40 41 44 48 49 54 56 61 78 91 97 99 100 100 100 100 100 100 100 100 101 99 97 92 79 72 76 83 89 93 97 99 99 100 99 98 88 69 68 78 70 65 84 91 78 76 82 85 82
51 52 52 51 49 50 54 56 58 63 67 76 91 100 100 100 100 100 100 100 100 100 100 99 95 92 96 93 81 74 76 83 90 95 99 99 99 100 99 97 83 69 78 83 69 72 87 83 78 87 91 84
61 64 65 65 64 62 62 65 66 68 73 79 89 98 100 100 100 100 99 100 100 100 100 99 94 89 91 97 91 82 77 77 85 92 97 98 99 101 99 99 95 84 81 86 80 67 66 73 79 85 92 92
63 66 69 71 73 73 72 73 75 76 77 81 87 94 99 100 100 100 99 100 100 100 100 99 99 95 94 96 92 92 88 79 80 86 93 97 99 100 100 100 99 96 88 83 86 78 59 52 63 77 87 96
62 64 66 69 71 73 76 76 78 80 81 83 86 90 95 97 98 100 100 100 100 100 99 99 100 99 100 98 94 94 94 88 84 85 89 92 93 95 96 98 98 99 97 90 87 85 74 53 46 60 78 88
60 61 63 65 67 69 71 73 75 77 80 83 85 88 90 92 94 97 99 100 100 100 100 100 100 100 100 100 98 97 95 90 89 91 92 89 87 88 87 87 90 95 98 99 94 86 82 71 51 44 56 69
58 59 60 60 62 64 65 67 68 71 74 77 79 82 84 86 88 91 94 97 99 100 100 99 99 100 100 100 100 100 99 93 88 90 91 87 84 82 81 80 79 83 89 95 99 95 88 82 71 53 43 50
59 59 58 58 58 59 59 60 62 64 66 68 71 73 76 79 80 82 85 90 95 98 100 100 100 100 100 100 100 99 100 98 93 92 91 89 85 80 77 76 74 73 76 84 93 98 96 90 86 75 54 45
62 61 60 60 60 59 58 58 58 58 60 61 63 65 67 70 72 73 75 78 84 90 93 96 97 97 96 97 98 99 98 97 96 96 97 97 93 89 81 75 76 75 71 76 84 93 100 98 94 86 68 57
66 65 65 65 64 63 63 62 60 59 58 58 58 60 60 61 63 65 67 68 70 73 77 81 85 87 87 88 90 93 93 93 95 96 98 100 99 98 93 86 83 83 78 76 79 87 97 101 99 92 79 72
75 73 72 71 70 69 67 67 66 65 63 61 60 60 59 58 58 58 59 61 62 63 64 65 68 70 73 76 78 80 80 82 88 93 95 98 100 99 99 98 94 90 86 81 79 82 91 97 99 99 93 87
88 86 84 81 79 76 73 70 69 67 66 64 63 61 59 57 55 54 53 53 55 55 56 56 56 57 58 61 64 67 67 68 73 82 89 91 95 98 99 100 99 97 92 88 85 82 84 89 94 100 99 97
93 92 90 88 85 82 78 74 70 66 61 57 55 53 51 49 48 48 47 47 48 49 50 50 50 49 48 48 49 51 53 56 58 65 75 81 85 90 94 95 97 99 96 93 92 88 85 87 94 99 98 96
91 90 89 87 85 83 82 79 75 68 59 52 46 42 40 40 40 40 40 40 40 42 43 44 44 44 43 42 41 41 41 43 45 47 55 64 72 77 79 80 83 91 96 95 95 94 91 91 95 98 100 98
81 81 82 81 81 81 81 80 78 73 64 55 47 42 39 36 35 34 34 34 34 35 36 37 38 38 38 38 37 37 37 36 37 37 39 43 52 59 62 60 59 69 84 89 91 95 93 90 90 94 97 99
66 67 68 70 72 73 73 73 73 72 68 62 56 51 46 41 36 33 31 31 30 30 30 31 32 32 32 32 32 32 32 33 33 34 33 33 35 38 42 43 38 42 57 70 78 85 88 84 81 84 90 94
52 53 53 54 57 59 60 61 60 61 61 61 60 57 53 49 43 39 35 32 30 29 28 28 28 28 28 28 27 27 27 27 29 31 32 31 30 29 29 29 28 27 33 43 52 61 69 73 73 71 73 82
40 41 41 40 41 43 44 46 46 46 46 47 50 51 50 49 47 44 40 36 33 30 27 26 26 26 26 25 24 23 22 21 22 25 28 30 30 29 27 26 26 25 25 27 31 35 40 50 57 56 52 57
26 27 27 27 27 28 29 30 31 31 30 31 33 35 37 39 41 42 41 39 37 33 29 26 24 23 22 22 22 20 19 18 17 17 20 25 27 29 28 28 27 26 26 26 27 27 27 30 35 39 39 38
14 15 14 14 14 15 16 17 17 18 18 18 18 20 23 26 29 31 33 34 35 34 32 27 24 21 19 18 18 17 16 15 14 13 13 16 21 25 26 27 28 27 27 27 27 27 26 27 27 27 30 30
9 9 8 8 8 8 9 9 9 10 10 10 10 11 12 14 17 19 22 23 24 27 28 26 22 18 16 15 14 13 13 12 11 10 9 9 12 16 21 23 25 26 27 27 27 27 26 26 25 24 25 25
15 15 12 11 9 7 7 7 7 7 7 7 7 7 7 8 9 10 12 13 13 15 17 17 15 13 11 11 11 10 9 8 7 7 5 6 7 9 13 16 19 22 23 25 25 25 25 24 22 22 22 21
36 35 30 28 23 15 12 9 8 8 8 8 8 7 7 7 7 6 7 7 7 7 8 9 8 8 7 7 7 7 6 5 4 4 4 3 4 5 7 9 12 15 17 20 21 21 21 21 20 19 19 18
44 42 41 48 44 34 30 24 18 16 12 10 10 10 9 8 7 6 6 5 5 5 4 5 5 5 5 5 5 4 4 4 3 3 3 2 3 3 4 6 7 9 11 13 15 16 16 16 16 16 16 16
46 43 43 49 50 48 50 43 33 25 18 13 10 10 9 8 8 7 6 5 4 4 4 4 4 4 4 4 4 4 3 3 3 3 3 2 3 3 3 4 5 6 7 8 9 10 11 12 12 13 13 12
Wind_Speed
39 39 39 39 38 38 37 37 36 36 36 34 33 34 35 35 35 34 33 32 32 30 28 28 29 29 27 25 25 23 22 22 21 21 23 24 24 25 24 25 28 30 28 24 25 25 20 17 17 18 20 21
41 41 41 41 40 40 39 39 39 39 39 38 37 36 36 37 36 36 38 37 35 33 31 29 29 30 29 28 27 26 25 24 22 21 23 25 26 26 26 25 27 31 30 26 24 25 23 19 18 18 20 21
40 40 40 40 40 40 40 40 41 40 41 41 40 39 39 39 37 36 39 39 36 34 32 30 29 30 30 29 27 27 27 26 25 24 24 25 25 25 26 26 27 30 31 28 25 25 25 22 19 19 20 21
38 38 38 38 38 39 39 40 41 42 42 41 41 41 40 41 39 36 36 37 35 33 32 30 30 31 32 30 28 28 28 27 27 27 26 26 25 24 24 26 26 27 30 29 26 25 27 26 22 20 20 21
36 37 37 37 36 37 37 38 39 41 42 41 41 41 39 40 41 37 34 34 33 32 32 31 31 32 34 34 31 30 29 29 29 28 27 27 27 25 23 24 25 25 28 31 28 26 27 27 25 22 21 21
35 36 36 37 37 36 36 36 36 39 41 42 41 41 40 39 40 38 35 33 32 33 33 32 33 34 35 36 35 32 31 30 30 29 28 28 28 26 25 24 24 24 26 30 30 27 27 28 28 25 22 21
33 34 35 36 37 37 36 36 35 36 40 43 42 41 40 37 36 37 36 34 33 34 35 34 34 36 36 37 37 36 34 33 32 31 29 27 27 27 27 26 26 24 24 28 30 29 28 28 29 27 24 23
31 32 33 34 36 37 37 37 36 36 37 41 43 43 41 38 34 33 33 34 34 34 35 35 36 37 37 37 38 38 37 36 35 34 32 29 28 27 28 28 27 26 23 24 29 32 30 29 30 28 26 25
29 30 31 32 33 35 36 36 37 36 36 38 42 44 44 41 37 34 32 31 33 34 34 35 37 38 39 38 38 39 39 39 38 36 36 34 32 29 27 27 28 28 28 25 26 31 32 31 32 31 27 25
29 30 30 31 32 32 33 35 35 36 36 37 39 43 45 44 40 37 34 32 32 34 35 36 37 38 39 40 40 40 40 41 40 39 38 38 38 36 31 28 28 29 31 30 28 28 31 33 34 34 31 27
30 30 31 31 31 31 31 32 33 33 34 35 37 39 43 45 45 42 38 36 34 34 36 37 37 38 39 41 43 43 43 43 42 41 40 40 41 40 38 34 31 30 31 32 31 30 29 30 33 35 35 32
31 31 31 31 31 31 31 31 31 31 32 32 34 35 38 41 44 45 45 42 40 38 39 39 38 37 38 39 42 44 45 45 44 43 42 42 42 41 41 40 37 35 33 32 33 34 31 30 31 34 37 36
32 32 32 32 32 32 32 32 32 32 32 32 32 33 34 35 37 40 44 45 45 43 43 43 42 39 38 38 39 39 41 46 48 47 44 43 44 43 43 42 42 40 38 35 34 35 34 33 32 34 36 37
33 33 33 33 33 33 33 34 34 34 33 33 33 33 33 33 33 34 37 40 43 45 45 46 47 46 43 42 41 39 38 41 46 49 46 45 45 46 45 44 44 44 43 40 38 36 36 37 36 36 37 38
34 34 34 34 34 35 35 35 35 36 36 35 35 34 34 33 34 34 34 35 37 40 43 46 49 51 50 48 47 46 43 42 43 45 44 43 45 46 47 46 45 45 45 43 42 40 37 37 38 38 38 37
35 35 35 35 34 34 34 35 36 36 37 37 37 36 35 35 36 36 36 36 35 36 38 40 44 48 51 52 51 50 49 48 47 46 43 41 44 46 46 47 47 47 47 46 45 44 40 36 37 38 37 36
35 35 35 34 34 33 33 34 34 35 36 37 37 37 37 37 38 38 39 39 38 38 37 38 39 41 45 48 50 50 50 50 49 49 47 44 45 47 47 48 49 49 49 49 48 48 47 42 38 37 36 36
36 36 36 35 35 34 34 33 34 34 35 36 36 37 38 38 39 39 40 41 41 42 41 41 40 40 41 43 46 48 49 49 48 49 50 49 48 49 50 50 50 50 51 51 50 50 50 48 44 40 39 39
37 37 37 37 37 36 35 35 35 35 36 37 38 39 40 41 41 42 42 42 43 44 44 44 44 43 43 43 44 45 46 47 47 47 49 52 52 52 52 52 52 51 51 52 52 51 51 50 48 45 43 43
38 39 39 39 39 39 39 38 38 39 39 40 42 43 44 44 45 45 45 45 45 45 46 47 47 47 47 47 47 47 47 48 48 48 48 51 54 54 53 53 53 53 52 51 52 52 51 50 50 49 46 45
41 42 43 43 43 43 43 43 43 43 43 44 45 46 47 48 48 49 49 49 49 49 49 49 49 50 50 50 50 50 50 51 51 51 50 50 52 54 54 52 52 53 53 51 51 51 50 49 50 52 51 49
46 46 47 47 47 48 48 48 48 47 47 47 47 48 49 50 50 51 52 53 53 53 52 52 52 52 52 52 52 53 53 54 55 55 54 53 52 53 53 53 51 50 51 52 52 52 52 50 50 51 53 53
53 52 53 53 53 52 53 53 53 52 52 51 50 50 50 51 52 53 54 55 56 56 55 55 55 56 56 55 55 55 55 56 57 59 58 58 56 56 55 55 54 52 51 51 52 53 53 52 51 51 51 53
59 59 59 59 58 57 57 57 57 57 56 56 55 55 54 53 53 54 55 56 57 58 58 57 57 58 59 59 58 58 58 58 59 60 62 62 61 60 59 58 58 56 55 54 53 53 53 53 53 52 51 51
66 65 65 64 64 63 62 62 61 61 60 60 59 59 58 57 57 57 58 58 59 60 60 59 58 59 60 61 62 62 62 61 61 62 63 64 65 64 63 62 62 61 60 59 57 56 56 55 55 55 54 53
68 68 67 66 65 65 66 65 64 64 63 62 61 61 61 61 60 60 60 61 62 62 63 62 61 62 63 63 64 65 65 65 65 64 64 66 67 67 67 66 65 65 65 64 62 61 60 59 58 58 58 57
64 64 62 61 61 61 62 63 63 63 63 63 62 61 61 62 62 62 62 62 63 64 65 65 64 64 64 65 66 67 67 67 67 67 66 66 67 68 68 68 68 68 68 67 66 65 64 63 62 62 61 61
56 57 57 56 57 57 57 58 59 59 60 61 61 61 60 60 61 62 62 62 62 64 65 65 65 64 63 65 66 67 68 68 68 68 67 67 68 68 69 69 70 70 70 69 69 68 68 66 65 65 64 63
48 49 50 50 51 52 53 54 54 56 57 58 58 58 58 58 58 60 61 61 61 62 63 63 63 61 61 62 64 65 66 67 67 67 67 67 68 68 68 69 69 70 71 71 70 70 69 68 68 67 66 66
44 45 46 47 49 51 51 52 52 53 55 57 57 57 56 56 56 57 59 59 58 58 59 60 60 58 58 59 61 62 63 64 64 65 65 66 67 67 67 68 68 69 69 70 70 70 70 69 69 69 70 69
42 44 45 47 49 51 53 54 55 54 55 55 55 55 55 55 55 55 56 57 55 54 54 56 56 55 54 56 57 59 61 61 62 63 64 64 65 65 65 66 67 68 67 68 69 69 70 70 70 70 71 71
Wind_Direction
255 255 256 256 254 252 250 248 244 242 242 242 243 245 248 249 250 247 244 246 246 238 234 236 235 234 233 231 232 235 239 242 243 241 238 235 233 229 225 231 235 234 236 235 240 247 244 242 243 241 235 229
258 257 257 257 255 253 250 247 244 242 241 241 243 244 246 248 248 248 247 244 241 234 227 230 234 233 233 232 234 234 236 238 240 239 237 236 233 232 229 229 234 238 237 231 231 240 245 243 240 240 240 236
260 259 258 257 255 253 250 246 244 242 240 240 242 243 243 246 244 240 241 238 233 229 225 227 232 234 234 233 235 236 236 236 236 234 235 237 236 235 234 231 232 239 238 229 225 235 244 243 240 239 241 240
263 262 260 258 256 254 251 247 244 240 239 239 239 242 243 245 243 235 235 235 230 227 225 225 230 235 236 235 233 234 235 236 235 234 236 240 240 236 237 235 234 239 238 230 225 229 240 245 243 239 241 242
264 263 261 260 258 256 253 250 246 241 237 237 237 239 242 243 242 236 231 232 231 231 230 228 230 233 235 235 233 232 233 235 235 234 235 238 240 237 236 235 232 238 239 234 230 227 234 244 245 242 240 241
263 262 261 260 258 257 255 252 249 243 237 235 235 237 241 241 240 237 231 229 232 236 237 234 232 232 233 234 233 232 231 232 234 235 235 236 237 236 234 231 229 235 239 236 233 230 232 239 245 244 239 238
264 263 261 260 259 257 256 253 250 246 240 235 234 236 239 241 240 238 234 232 235 239 240 238 236 235 234 233 233 233 232 233 234 235 235 234 234 233 231 229 227 231 238 238 233 233 234 234 241 245 240 238
266 265 263 261 259 258 257 255 252 248 242 237 234 235 238 242 244 243 239 235 235 239 242 242 241 239 237 235 234 233 233 233 234 234 234 232 233 233 230 227 226 227 236 240 233 233 236 235 238 243 242 240
264 263 263 262 260 259 257 256 254 250 246 240 236 235 238 243 246 246 244 239 236 237 241 243 244 242 240 238 235 234 233 233 234 235 235 235 236 237 234 230 229 228 233 240 237 233 235 237 239 242 243 243
260 260 259 260 260 259 258 257 255 253 250 245 240 237 238 242 245 247 246 244 240 238 239 241 243 244 241 238 237 236 235 234 233 234 235 236 239 241 240 236 235 233 233 237 240 237 235 236 239 243 244 242
256 256 256 257 258 258 257 257 255 254 251 248 245 242 240 241 243 245 246 247 244 241 239 240 242 243 242 240 239 237 236 236 234 233 235 237 239 242 242 241 240 237 235 235 238 239 239 237 236 242 246 245
253 253 253 254 255 256 256 256 255 254 253 250 248 246 244 243 242 243 243 244 245 243 240 239 239 239 240 240 239 236 235 237 235 233 235 237 240 241 242 243 243 240 239 238 239 240 242 242 239 239 245 247
251 251 251 252 253 253 255 255 256 255 254 253 251 249 247 246 244 243 242 241 242 242 240 238 238 238 237 237 238 237 234 236 237 235 234 237 239 241 242 243 243 243 241 240 241 240 238 241 242 241 243 247
250 251 251 252 252 253 253 254 254 255 255 255 254 253 251 249 248 246 244 242 240 240 239 238 238 240 241 239 240 240 238 237 237 235 233 236 238 240 241 242 243 244 242 240 241 242 238 235 237 239 240 244
251 251 251 251 252 253 253 253 253 254 254 254 254 254 253 253 252 250 247 244 242 241 240 239 238 240 242 243 244 244 243 241 241 238 234 234 238 240 241 242 243 244 243 240 238 241 239 235 233 232 234 239
253 253 252 252 252 252 253 254 254 254 253 253 253 253 253 253 253 252 251 249 247 245 243 242 240 240 241 244 246 247 246 245 246 246 242 237 236 239 240 241 242 242 243 241 238 237 238 236 233 230 229 233
257 256 255 254 255 255 255 255 255 255 254 253 253 253 253 253 253 253 253 253 251 250 248 246 245 244 243 244 246 247 247 246 245 245 246 242 238 239 239 240 241 242 242 241 239 237 237 238 235 233 232 233
263 262 261 259 259 260 260 260 259 258 257 256 255 256 257 257 257 257 256 255 254 254 253 252 250 248 247 246 246 247 247 247 246 243 242 242 241 241 240 239 240 240 240 240 240 238 238 238 237 237 239 240
274 272 271 269 267 266 266 266 264 263 262 262 261 262 263 263 262 262 261 259 257 257 256 255 255 253 252 251 250 249 248 247 246 244 241 239 239 241 243 242 241 240 239 239 240 240 239 237 236 236 240 241
284 281 280 279 277 274 272 271 269 268 267 266 266 266 267 267 266 265 264 263 261 260 258 258 258 257 257 257 256 255 253 251 248 246 243 240 238 238 241 243 243 243 240 239 239 240 241 240 237 235 236 238
291 288 286 285 283 281 278 276 273 272 271 270 269 269 270 270 269 268 267 266 265 264 262 261 260 260 260 261 261 260 258 257 254 251 248 244 241 238 238 239 242 244 243 241 239 239 240 242 241 239 237 239
297 295 292 290 287 284 283 281 279 277 275 273 273 272 273 273 273 272 271 270 268 267 266 265 263 263 263 263 264 263 262 261 259 257 253 250 247 243 241 239 239 240 242 243 242 240 240 241 242 242 242 242
300 297 295 292 289 287 285 284 282 281 279 277 275 275 275 275 275 275 274 274 272 271 270 269 268 267 266 266 267 267 266 265 263 260 257 255 253 250 248 245 242 241 240 242 242 243 243 243 243 243 244 244
300 296 294 292 291 288 286 284 283 283 282 280 278 277 277 276 276 276 275 275 275 274 273 272 273 272 271 269 269 270 269 269 267 264 260 258 256 254 252 251 249 247 245 244 244 244 244 244 244 245 245 245
301 298 295 294 292 291 289 287 286 285 284 284 282 281 280 279 277 276 276 275 276 276 275 274 276 276 276 274 274 273 273 272 271 268 264 261 258 256 255 253 253 252 250 249 248 247 246 244 244 245 245 246
301 299 298 296 295 294 293 292 290 289 287 286 285 284 283 281 279 277 276 276 275 275 275 276 277 278 279 279 278 277 276 275 274 272 268 264 261 258 256 255 254 254 253 253 252 251 250 248 247 246 245 245
302 301 300 298 297 295 294 293 292 291 289 288 287 285 284 282 281 279 277 276 276 275 275 276 278 279 280 280 279 278 278 277 276 275 271 267 263 260 258 256 255 254 254 254 254 254 253 252 251 250 248 247
306 303 301 299 297 295 293 291 290 289 288 287 286 284 283 282 281 279 278 277 276 276 276 276 277 278 279 279 279 278 278 277 276 274 272 267 264 261 259 257 256 254 253 253 254 255 255 254 254 253 251 250
307 305 303 302 299 297 294 291 289 288 287 286 285 284 282 280 279 278 277 276 276 275 275 275 275 275 275 275 275 275 275 275 273 271 269 266 263 260 259 257 256 254 253 253 252 253 254 254 255 254 253 252
302 301 302 303 302 301 299 296 293 290 288 287 286 285 283 282 279 277 276 275 273 273 272 272 271 270 270 270 270 270 270 270 268 267 265 262 260 258 257 256 255 254 253 252 252 251 252 252 253 254 253 253
298 298 299 299 299 300 300 299 297 295 293 290 287 286 283 281 279 278 276 274 271 269 267 267 266 265 263 262 263 263 264 264 262 261 260 258 257 255 254 254 254 253 252 251 251 250 250 250 250 251 251 252